Location: La Tine
(46.4708°N, 7.0525°E)
Time: 01:14:29
(UTC+00:00)

Meteor 1-24 Rocket - Pass Details

Date: 20 January 2021
Orbit: 791 x 926 km, 81.3° (Epoch: 03 March)

Event Time Altitude Azimuth Distance (km) Brightness Sun altitude
Exits shadow 02:53:14 13° 102° (ESE) 2,214 6.3 -43.2°
Drops below altitude 10° 02:54:12 10° 111° (ESE) 2,456 6.5 -43.1°
Sets 02:57:19 0° 128° (SE) 3,412 7.2 -42.6°
